• In Hungary
  • List of Countries
  • For 7 days
  • Water Temperature
  • Satellite Maps
  • Weather Map
  • News
  • Weather Widgets
  • user-avatar
    Login

    Hourly Weather Kazanluk

    Today, 23 September, Sunday

    Time Temperature Precipitation Wind Pressure Humidity
    00:00 +18°C° 0 mm 2 mps 710 mmHg 49%
    01:00 +18°C° 0 mm 2 mps 710 mmHg 50%
    02:00 +18°C° 0 mm 2 mps 709 mmHg 50%
    03:00 +17°C° 0 mm 2 mps 710 mmHg 53%
    04:00 +17°C° 0 mm 2 mps 710 mmHg 55%
    05:00 +17°C° 0 mm 2 mps 710 mmHg 57%
    06:00 +19°C° 0 mm 1 mps 710 mmHg 55%
    07:00 +20°C° 0 mm 1 mps 710 mmHg 53%
    08:00 +21°C° 0 mm 1 mps 711 mmHg 51%
    09:00 +23°C° 0 mm 1 mps 711 mmHg 47%
    10:00 +25°C° 0 mm 1 mps 712 mmHg 42%
    11:00 +27°C° 0 mm 1 mps 712 mmHg 38%
    12:00 +28°C° 0 mm 1 mps 712 mmHg 36%
    13:00 +28°C° 0 mm 1 mps 712 mmHg 35%
    14:00 +29°C° 0 mm 1 mps 712 mmHg 33%
    15:00 +29°C° 0 mm 1 mps 711 mmHg 34%
    16:00 +28°C° 0 mm 1 mps 711 mmHg 35%
    17:00 +28°C° 0 mm 1 mps 711 mmHg 36%
    18:00 +26°C° 0 mm 1 mps 710 mmHg 41%
    19:00 +24°C° 0 mm 1 mps 710 mmHg 46%
    20:00 +21°C° 0 mm 2 mps 710 mmHg 50%
    21:00 +21°C° 0 mm 2 mps 710 mmHg 53%
    22:00 +20°C° 0 mm 2 mps 710 mmHg 56%
    23:00 +19°C° 0 mm 2 mps 710 mmHg 59%

    Tomorrow, 24 September, Monday

    Time Temperature Precipitation Wind Pressure Humidity
    00:00 +19°C° 0 mm 2 mps 710 mmHg 62%
    01:00 +18°C° 0 mm 2 mps 709 mmHg 65%
    02:00 +18°C° 0 mm 2 mps 709 mmHg 68%
    03:00 +17°C° 0 mm 2 mps 708 mmHg 68%
    04:00 +17°C° 0 mm 2 mps 708 mmHg 68%
    05:00 +17°C° 0 mm 2 mps 707 mmHg 69%
    06:00 +18°C° 0 mm 2 mps 707 mmHg 64%
    07:00 +20°C° 0 mm 1 mps 707 mmHg 60%
    08:00 +21°C° 0 mm 1 mps 707 mmHg 56%
    09:00 +24°C° 0 mm 2 mps 707 mmHg 48%
    10:00 +26°C° 0 mm 2 mps 707 mmHg 41%
    11:00 +28°C° 0 mm 2 mps 707 mmHg 34%
    12:00 +29°C° 0 mm 3 mps 707 mmHg 31%
    13:00 +30°C° 0 mm 4 mps 706 mmHg 29%
    14:00 +32°C° 0 mm 4 mps 706 mmHg 26%
    15:00 +28°C° 0 mm 6 mps 706 mmHg 32%
    16:00 +24°C° 0 mm 8 mps 706 mmHg 38%
    17:00 +21°C° 0 mm 9 mps 707 mmHg 44%
    18:00 +18°C° 0 mm 8 mps 707 mmHg 46%
    19:00 +16°C° 0 mm 8 mps 708 mmHg 48%
    20:00 +14°C° 0 mm 7 mps 709 mmHg 49%
    21:00 +12°C° 0 mm 7 mps 710 mmHg 50%
    22:00 +12°C° 0 mm 7 mps 710 mmHg 50%
    23:00 +11°C° 0 mm 7 mps 711 mmHg 50%

    Day after tomorrow, 25 September, Tuesday

    Time Temperature Precipitation Wind Pressure Humidity
    00:00 +10°C° 0 mm 6 mps 711 mmHg 51%
    01:00 +10°C° 0 mm 6 mps 711 mmHg 52%
    02:00 +10°C° 0 mm 6 mps 712 mmHg 53%
    03:00 +9°C° 0 mm 5 mps 712 mmHg 52%
    04:00 +9°C° 0 mm 5 mps 712 mmHg 51%
    05:00 +9°C° 0 mm 5 mps 712 mmHg 51%
    06:00 +9°C° 0 mm 5 mps 713 mmHg 48%
    07:00 +9°C° 0 mm 5 mps 713 mmHg 45%
    08:00 +9°C° 0 mm 5 mps 714 mmHg 42%
    09:00 +12°C° 0 mm 5 mps 714 mmHg 37%
    10:00 +13°C° 0 mm 6 mps 714 mmHg 31%
    11:00 +14°C° 0 mm 6 mps 715 mmHg 25%
    12:00 +15°C° 0 mm 6 mps 714 mmHg 24%
    13:00 +15°C° 0 mm 6 mps 714 mmHg 22%
    14:00 +16°C° 0 mm 6 mps 714 mmHg 20%
    15:00 +15°C° 0 mm 6 mps 714 mmHg 22%
    16:00 +14°C° 0 mm 6 mps 714 mmHg 23%
    17:00 +14°C° 0 mm 5 mps 714 mmHg 24%
    18:00 +12°C° 0 mm 5 mps 714 mmHg 27%
    19:00 +10°C° 0 mm 4 mps 715 mmHg 29%
    20:00 +8°C° 0 mm 3 mps 715 mmHg 32%
    21:00 +8°C° 0 mm 2 mps 716 mmHg 34%
    22:00 +7°C° 0 mm 2 mps 716 mmHg 36%
    23:00 +6°C° 0 mm 2 mps 716 mmHg 37%

    26 September, Wednesday

    Time Temperature Precipitation Wind Pressure Humidity
    00:00 +6°C° 0 mm 2 mps 716 mmHg 39%
    01:00 +5°C° 0 mm 2 mps 717 mmHg 41%
    02:00 +5°C° 0 mm 2 mps 717 mmHg 44%
    03:00 +6°C° 0 mm 1 mps 717 mmHg 46%
    04:00 +5°C° 0 mm 1 mps 717 mmHg 48%
    05:00 +5°C° 0 mm 1 mps 717 mmHg 50%
    06:00 +5°C° 0 mm 2 mps 718 mmHg 48%
    07:00 +6°C° 0 mm 2 mps 718 mmHg 46%
    08:00 +7°C° 0 mm 2 mps 719 mmHg 44%
    09:00 +9°C° 0 mm 2 mps 719 mmHg 41%
    10:00 +10°C° 0 mm 3 mps 719 mmHg 38%
    11:00 +12°C° 0 mm 3 mps 719 mmHg 34%
    12:00 +12°C° 0 mm 3 mps 719 mmHg 33%
    13:00 +13°C° 0 mm 4 mps 718 mmHg 32%
    14:00 +13°C° 0 mm 4 mps 718 mmHg 30%
    15:00 +12°C° 0 mm 4 mps 718 mmHg 31%
    16:00 +12°C° 0 mm 4 mps 718 mmHg 32%
    17:00 +11°C° 0 mm 4 mps 718 mmHg 33%
    18:00 +10°C° 0 mm 4 mps 718 mmHg 38%
    19:00 +8°C° 0 mm 3 mps 718 mmHg 42%
    20:00 +5°C° 0 mm 3 mps 718 mmHg 47%
    21:00 +6°C° 0 mm 2 mps 718 mmHg 47%
    22:00 +5°C° 0 mm 2 mps 718 mmHg 48%
    23:00 +5°C° 0 mm 2 mps 718 mmHg 49%

    27 September, Thursday

    Time Temperature Precipitation Wind Pressure Humidity
    00:00 +4°C° 0 mm 2 mps 718 mmHg 50%
    01:00 +4°C° 0 mm 2 mps 718 mmHg 51%
    02:00 +4°C° 0 mm 2 mps 718 mmHg 51%
    03:00 +3°C° 0 mm 2 mps 717 mmHg 52%
    04:00 +3°C° 0 mm 2 mps 717 mmHg 52%
    05:00 +3°C° 0 mm 2 mps 717 mmHg 52%
    06:00 +4°C° 0 mm 2 mps 717 mmHg 48%
    07:00 +6°C° 0 mm 2 mps 717 mmHg 44%
    08:00 +7°C° 0 mm 2 mps 717 mmHg 40%
    09:00 +9°C° 0 mm 2 mps 717 mmHg 36%
    10:00 +12°C° 0 mm 2 mps 717 mmHg 31%
    11:00 +13°C° 0 mm 3 mps 717 mmHg 27%
    12:00 +14°C° 0 mm 3 mps 716 mmHg 25%
    13:00 +16°C° 0 mm 3 mps 716 mmHg 23%
    14:00 +17°C° 0 mm 3 mps 715 mmHg 21%
    15:00 +17°C° 0 mm 3 mps 714 mmHg 23%
    16:00 +16°C° 0 mm 3 mps 714 mmHg 24%
    17:00 +16°C° 0 mm 3 mps 714 mmHg 25%
    18:00 +13°C° 0 mm 3 mps 713 mmHg 28%
    19:00 +12°C° 0 mm 2 mps 713 mmHg 32%
    20:00 +9°C° 0 mm 2 mps 713 mmHg 35%
    21:00 +8°C° 0 mm 2 mps 713 mmHg 35%
    22:00 +8°C° 0 mm 2 mps 713 mmHg 34%
    23:00 +8°C° 0 mm 2 mps 713 mmHg 34%

    28 September, Friday

    Time Temperature Precipitation Wind Pressure Humidity
    00:00 +8°C° 0 mm 2 mps 712 mmHg 33%
    01:00 +8°C° 0 mm 2 mps 712 mmHg 32%
    02:00 +9°C° 0 mm 2 mps 712 mmHg 31%
    03:00 +9°C° 0 mm 2 mps 712 mmHg 31%
    04:00 +9°C° 0 mm 2 mps 712 mmHg 31%
    05:00 +9°C° 0 mm 2 mps 712 mmHg 31%
    06:00 +10°C° 0 mm 2 mps 712 mmHg 30%
    07:00 +12°C° 0 mm 2 mps 712 mmHg 30%
    08:00 +13°C° 0 mm 2 mps 712 mmHg 29%
    09:00 +14°C° 0 mm 2 mps 712 mmHg 28%
    10:00 +16°C° 0 mm 3 mps 712 mmHg 27%
    11:00 +17°C° 0 mm 3 mps 712 mmHg 26%
    12:00 +18°C° 0 mm 3 mps 712 mmHg 28%
    13:00 +19°C° 0 mm 3 mps 712 mmHg 30%
    14:00 +20°C° 0 mm 3 mps 711 mmHg 32%
    15:00 +19°C° 0 mm 3 mps 711 mmHg 34%
    16:00 +19°C° 0 mm 3 mps 711 mmHg 37%
    17:00 +19°C° 0 mm 3 mps 710 mmHg 39%
    18:00 +17°C° 0 mm 2 mps 710 mmHg 43%
    19:00 +15°C° 0 mm 2 mps 710 mmHg 48%
    20:00 +14°C° 0 mm 2 mps 710 mmHg 52%
    21:00 +13°C° 0 mm 2 mps 710 mmHg 54%
    22:00 +13°C° 0 mm 2 mps 710 mmHg 56%
    23:00 +12°C° 0 mm 2 mps 710 mmHg 57%
    Show more